STARLINK-32743, 62480

Orbit data source: Space-Track

STARLINK-32743, 62480 is a payload satellite owned by SpaceX/Seattle (US) in LEO that was launched on Tue, 31 Dec 2024 UTC via an FALCON 9 launch vehicle from the Air Force Eastern Test Range (AFETR). Payloads include a variety of satellites, spacecraft, and rockets equipped with specific instruments for various scientific and technological missions. These include communications satellites like Starlink; space stations such as the ISS; scientific satellites like the Hubble; Earth observation satellites from companies like Planet Labs, Umbra, and HawkEye 360; GPS; miniature CubeSats for education and research; and military/defense satellites.

Loading next visibility...
STARLINK-32743 details
Identifier
62480, 2024-254U
Orbit
LEO
Last TLE update1 day ago
Origin
Flag of USSpaceX/Seattle (US)
ManufacturerSpaceX/Seattle
MissionOperational Commercial Communications
Bus & MotorSTARLINK V2M, Unknown motor
Mass730 kg wet, ~700 kg dry
Launch date (UTC)
2024-12-31 (1 month ago)
Launch vehicle
FALCON 9
Launch site
Air Force Eastern Test Range (AFETR)
Object type
Payload
Rocket body
Debris
Shape & HBRBox + 2 Pan, 29 m
Radar Cross Section33.884 m², Large (>1 m²)

Expand to show TLE details & history

TLE from 1 day ago
0 STARLINK-32743
1 62480U 24254U   25035.23151022 -.00001828  00000-0 -36499-4 0  9994
2 62480  43.0013 110.1378 0001859 258.2801 101.7847 15.40708381  6677
Epoch: 2025-02-04T05:33Z
Definitive object data (Epoch: 2025-02-04T05:33:22.483Z)
Latitude
Longitude-107.84564°
Altitude444.051 km
Speed7.647 km/s
True Right ascension07h 20m 33s
True Declination0° 00' 00"
Sunlit
Object was in full shadow at TLE epoch
Visualization TLE readout
Latitude-39.29684°
Longitude127.06853°
Altitude454.563 km
Speed7.641 km/s
Apparent Right ascension21h 33m 46s
Apparent Declination-41° 39' 20"
Sunlit
Object is in daylight
Visualization observer readout
Local Sidereal Time07:59:58
Azimuth256.761° W
Elevation-72.214°
Doppler factor1
Orbital elements
Apogee altitude447.242 km
Perigee altitude444.705 km
Semi-major axis6,824.11 km
Eccentricity0.0001859
Inclination43.0013°
RAAN110.1378°
Arg. of periapsis258.2801°
True anomaly101.80555°
Mean anomaly101.7847°
Eccentric anomaly101.79513°
Mean motion3.85012 °/min
BSTAR-0.000036499
Orbital period93.5 mins
Loading maneuver chart data...
Loading historical data...
Loading historical data...
Loading historical data...
Loading historical data...
Loading historical data...
Loading historical data...
Loading historical data...

STARLINK-32743 Visibility forecast

Observer location: undefined°, undefined

Span
Click to sort rows by Start time (UTC) header in descending order
Start Az.
Max El. time (UTC)
Max El. Az.
Max El.
End time (UTC)
End Az.
6 mins2025-02-05 08:12:53.003Z226.737° WSW2025-02-05 08:15:53.003Z171.367° S34.755°2025-02-05 08:18:53.003Z83.207° E
5 mins2025-02-05 09:51:53.003Z273.978° WNW2025-02-05 09:53:53.003Z319.183° NNW39.147°2025-02-05 09:56:53.003Z67.41° ENE
5 mins2025-02-05 11:30:53.003Z300.202° NW2025-02-05 11:32:53.003Z31.048° NE38.331°2025-02-05 11:35:53.003Z86.46° E
5 mins2025-02-05 13:08:53.003Z273.526° WNW2025-02-05 13:10:53.003Z189.016° SSW38.965°2025-02-05 13:13:53.003Z127.431° SE
|